Regional Weather Roundup
Issued by NWS Nashville, TN

Home | Current Version | Previous Version | Text Only | Print | Product List | Glossary On
Versions: 1 2 3 4 5 6 7 8 9 10 11 12 13 14 15 16 17 18 19 20 21 22 23 24 25 26 27 28
000
ASUS44 KOHX 270810
RWROHX
MIDDLE TENNESSEE HOURLY WEATHER ROUNDUP
NATIONAL WEATHER SERVICE NASHVILLE TN
300 AM CDT TUE JUN 27 2017

NOTE: "FAIR" INDICATES FEW OR NO CLOUDS BELOW 12,000 FEET WITH
NO SIGNIFICANT WEATHER AND/OR OBSTRUCTIONS TO VISIBILITY.

* THESE REPORTS ARE NOT UNDER NWS QUALITY CONTROL AND MAY NOT
  REPORT WEATHER SUCH AS PRECIPITATION AND FOG.


TNZ005>011-023>034-057-059-062>066-078-080-270900
...NORTHERN MIDDLE TENNESSEE...

CITY           SKY/WX    TMP DP  RH WIND       PRES   REMARKS
CLARKSVILLE    CLOUDY    60  56  86 CALM      30.11R
CROSSVILLE     CLOUDY    56  53  90 CALM      30.14S
GALLATIN       MOCLDY    63  57  82 CALM      30.12S
NASHVILLE      PTCLDY    66  55  67 CALM      30.09F
PORTLAND       CLEAR     61  57  88 CALM      30.09F
SMYRNA         CLEAR     62  58  86 CALM      30.10F
SPARTA         MOCLDY    59  57  94 CALM      30.10F
SPRINGFIELD    PTCLDY    61  57  88 CALM      30.09S
WEST NASHVILLE CLEAR     63  57  82 CALM      30.08R
$$
TNZ056-058-060-061-075>077-079-093>097-270900
...SOUTHERN MIDDLE TENNESSEE...

CITY           SKY/WX    TMP DP  RH WIND       PRES   REMARKS
COLUMBIA       MOCLDY    63  63 100 CALM      30.07S
FAYETTEVILLE   CLEAR     64  61  88 CALM      30.08F
MCMINNVILLE    PTCLDY    61  61 100 CALM      30.10F
MURFREESBORO   CLEAR     63  57  80 CALM      30.09F
PULASKI        CLOUDY    64  63  94 CALM      30.08S
SHELBYVILLE    PTCLDY    61  59  94 CALM      30.08F
TULLAHOMA      CLEAR     61  55  82 CALM      30.10F
WINCHESTER     PTCLDY    64  59  82 CALM      30.09F
$$


...KEY TO REMARKS...
VSB - VISIBILITY IN MILES
WCI - WIND CHILL INDEX
HX  - HEAT INDEX





USA.gov is the U.S. government's official web portal to all federal, state and local government web resources and services.